sat.trackr.live / text

‹ back to catalog

STARLINK-36049

NORAD 66805 · 2025-278Q

PAYLOAD ACTIVE UNKNOWN

§ Identity

Operator
Country
US
Launch date
2025-12-01
Launch site
AFETR
Launch vehicle
Mass (kg)
RCS (m²)

Purposes: comms

External: N2YO · Heavens-Above · Gunter

§ Orbital elements

Epoch: 2026-05-25T02:42:35.355744Z

Period
94.27 min
Inclination
43.0046°
Eccentricity
0.0001355
Mean motion
15.27597292 rev/d
Perigee alt
482.1 km
Apogee alt
483.9 km
Semi-major
6,861.1 km
B*
7.9748e-4
RAAN
43.0650°
Arg perigee
259.7138°
Mean anomaly
100.3561°
Rev number
2,689

§ Raw data

STARLINK-360491 66805U 25278Q   26145.11290921  .00021759  00000+0  79748-3 0  99932 66805  43.0046  43.0650 0001355 259.7138 100.3561 15.27597292 26891

JSON: /api/v1/satellites/66805 · /tle

For live sub-satellite position, see the globe view (requires WebGL).

§ Visibility from observer

Set your observer location to see the next 7 days of passes ≥ 10°. The values pass through the URL so the page stays shareable.

No JS? Fill the form by hand. The geolocation button needs JavaScript.